weather.gov     
National Weather Service

Regional Weather Roundup
NWS Homepage
This page is being discontinued on March 12, 2014.
The same data is available at this site. Please update your bookmarks.
Thank you, and we apologize for the inconvenience.
Please send an email to SR-SRH.Webmaster@noaa.gov with any concerns.


Current Version
Previous Version:    01  02  03  04  05  06  07  08  09  10  11  12  13  14  15  16  17  18  19  20  21  22  23  24  25  26  
[Printable]
407
ASUS41 KBOX 241710
RWRBOX

REGIONAL WEATHER ROUNDUP
NATIONAL WEATHER SERVICE TAUNTON MA
100 PM EDT THU APR 24 2014

NOTE:  "FAIR" INDICATES FEW OR NO CLOUDS BELOW 12,000 FEET WITH NO
SIGNIFICANT WEATHER AND/OR OBSTRUCTIONS TO VISIBILITY.  THE FOLLOWING
OBSERVATION LOCATIONS DO NOT REPORT PRESENT WEATHER...PROVINCETOWN...
SMITHFIELD...BLOCK ISLAND...KEENE...AND OXFORD.

MAZALL-241800-
EASTERN MASSACHUSETTS

CITY           SKY/WX    TMP DP  RH WIND       PRES   REMARKS
BOSTON         SUNNY     55  23  28 NW23G31   29.68S
BEVERLY        SUNNY     54  25  32 NW25G37   29.66S
LAWRENCE       SUNNY     52  22  30 NW24G44   29.69S
BEDFORD        SUNNY     54  24  31 N22G44    29.69S
BLUE HILL        N/A     52  23  32 NW30G46   29.64F
NORWOOD        SUNNY     56  23  27 NW15G37   29.68F
MARSHFIELD       N/A    N/A N/A N/A MISG        N/A
PLYMOUTH       SUNNY     54  24  31 N21G36    29.67F
TAUNTON        SUNNY     58  24  27 N13G26    29.68F
NEW BEDFORD    SUNNY     54  23  30 NW18G30   29.67F
$$

MAZALL-241800-
CAPE COD AND THE ISLANDS

CITY           SKY/WX    TMP DP  RH WIND       PRES   REMARKS
FALMOUTH       SUNNY     54  25  32 NW25G33   29.66F
HYANNIS        SUNNY     52  28  39 NW18G33   29.63S
CHATHAM        SUNNY     50  26  39 NW15G33   29.65S
PROVINCETOWN   SUNNY     48  34  57 MISG      29.66S
NANTUCKET      SUNNY     53  23  31 NW23G32   29.65F
MARTHAS VNYRD  SUNNY     56  22  26 NW25G32   29.68S
$$

MAZALL-241800-
CENTRAL AND WESTERN MASSACHUSETTS

CITY           SKY/WX    TMP DP  RH WIND       PRES   REMARKS
WORCESTER      SUNNY     50  21  32 NW26G38   29.72S
FITCHBURG      SUNNY     55  23  28 NW29G39   29.72F
ORANGE         SUNNY     52  21  29 NW23G37   29.76S
SPRINGFIELD    SUNNY     55  21  26 NW23G35   29.78F
WESTFIELD      SUNNY     56  19  23 NW24G33   29.79F
NORTH ADAMS    SUNNY     50  21  32 NW8G26    29.85F
PITTSFIELD     SUNNY     49  17  28 NW18G30   29.82F
$$

RIZALL-241800-
RHODE ISLAND

CITY           SKY/WX    TMP DP  RH WIND       PRES   REMARKS
PROVIDENCE     MOSUNNY   56  21  25 N24G35    29.71F
NEWPORT        SUNNY     54  25  32 NW21G33   29.70F
BLOCK ISLAND   SUNNY     54  27  35 NW16G22   29.74S
SMITHFIELD     SUNNY     54  25  32 NW25G33   29.72F
WESTERLY       SUNNY     55  18  23 N24G38    29.75F
$$

CTZALL-241800-
CONNECTICUT

CITY           SKY/WX    TMP DP  RH WIND       PRES   REMARKS
BRADLEY INTL   MOSUNNY   54  16  22 N16G32    29.79F
HARTFORD       SUNNY     54  18  24 NW20G29   29.81F
BRIDGEPORT     SUNNY     57   9  14 NW25G36   29.82F
DANBURY        SUNNY     52  12  20 N21G32    29.87F
GROTON         SUNNY     57  20  23 NW23G31   29.75F
NEW HAVEN      SUNNY     55  17  22 NW14G28   29.82F
CHESTER        FAIR      52  16  24 NW20G32   29.80S
MERIDEN        SUNNY     54  14  20 N16G35    29.82F
WILLIMANTIC    SUNNY     54  19  25 NW22G35   29.77F
OXFORD         SUNNY     50  16  25 N10G30    29.87R
$$

MEZ002-015-021-024-NHZ003-005-008-011-012-014-VTZ005-008-241800-
NORTHERN NEW ENGLAND

CITY           SKY/WX    TMP DP  RH WIND       PRES   REMARKS
PORTLAND ME    MOSUNNY   52  26  36 NW23G45   29.63R
BANGOR ME      LGT RAIN  42  42 100 NW21G30   29.57R
CONCORD NH     SUNNY     51  23  33 NW22G39   29.71F
MANCHESTER NH  MOSUNNY   52  22  30 NW21G35   29.69S
NASHUA NH      SUNNY     54  22  28 NW40G51   29.71F
PORTSMOUTH NH  MOSUNNY   55  24  30 NW25G36   29.64S
JAFFREY NH     SUNNY     48  21  34 N14G33    29.74S
KEENE NH       SUNNY     48  21  34 NW17G31   29.78F
BURLINGTON VT  MOSUNNY   49  23  36 N24G33    29.91S
MT. WASHINGTON FOG       16  16 100 NW62G78     N/A  VSB 0   WCI -11
$$

NYZ052-076-241800-
EASTERN NEW YORK

CITY           SKY/WX    TMP DP  RH WIND       PRES   REMARKS
ALBANY         MOSUNNY   54  14  20 NW23G31   29.89F
NEW YORK CITY  MOSUNNY   55  13  18 NW26G32   29.88F
$$

ANZALL-241800-
MARINE OBSERVATIONS

STATION/POSITION TIME  TEMP    WIND        PRES    VSBY  WAVE
                       AIR SEA DIR/SP/G                  HT/PER
                 (UTC) (F)     (DEG/KT/KT) (MB)    (MI)  (FT/S)
BOSTON BUOY      1650   46 41  320/ 23/ 27 1004.1F         5/ 4
BUZZARDS BAY     1600          320/ 25/ 29 1006.4R
NANTUCKET SOUND  1650   48 45  330/ 16/ 19 1004.1R         4/ 5
MASS BAY-STELLWA 1604   45 41  310/ 23/ 27 1002.7R  1 7/8  4/ 4
ISLE OF SHOALS   1700   48     320/ 27/ 34 1002.6F
S OF BLOCK IS    1625      42                N/A           6/ 6
$$

......................KEY.........................
  SKY/WX - SKY CONDITION/PRESENT WEATHER
  TMP    - TEMPERATURE IN FAHRENHEIT
  DWPT   - DEWPOINT IN FAHRENHEIT
  RH     - RELATIVE HUMIDITY IN PERCENT
  WIND   - DIRECTION AND SPEED IN MPH
  PRES   - MEAN SEA LEVEL PRESSURE IN INCHES OF HG
  WCI    - WIND CHILL INDEX
  VSB    - VISIBILITY IN MILES
  HX     - HEAT INDEX
  TC     - TEMPERATURE IN CELSIUS
  VRB    - VARIABLE WIND DIRECTION
  N/A    - NOT AVAILABLE




U.S. Dept. of Commerce
NOAA National Weather Service
1325 East West Highway
Silver Spring, MD 20910
E-mail: w-nws.webmaster@noaa.gov
Page last modified: May 16, 2007
NATIONAL WEATHER SERVICE: for Safety, for Work, for Fun - FOR LIFE